RH
13 14 27 49 49 48 76 99 100 91 82 87 81 91 91 84 47 42 48 71 92 90 92 83 96 100 100 98 98 99 99 98 99 98 98 97 95 81
15 15 15 31 57 54 51 62 94 95 89 82 84 79 93 61 46 45 60 71 47 64 71 73 90 98 99 99 99 99 98 99 98 99 98 95 79 71
14 15 15 18 37 59 54 52 54 84 77 99 86 86 78 77 57 54 59 59 79 69 89 88 98 94 100 99 99 98 99 98 98 98 98 95 88 77
13 12 14 15 18 38 61 56 50 61 74 86 100 90 83 85 60 72 68 66 78 74 69 86 89 99 100 100 99 99 98 97 98 98 98 95 92 85
20 12 12 14 14 21 42 61 62 58 61 73 98 100 86 77 63 62 73 67 62 56 50 62 99 97 99 99 98 99 95 98 98 98 98 98 93 85
29 23 14 12 13 15 26 45 66 67 63 65 71 100 96 67 63 72 95 72 68 64 60 68 81 96 99 99 99 99 100 98 99 98 97 96 84 90
27 27 25 16 12 13 15 26 47 68 81 70 59 68 61 95 77 74 89 99 92 91 85 99 98 99 99 99 98 98 98 98 98 98 98 99 86 90
27 26 25 25 16 13 14 17 27 56 79 82 72 63 63 100 88 95 98 94 80 100 100 94 72 82 100 98 98 98 98 98 99 97 93 92 90 89
26 25 24 25 23 16 15 15 19 37 62 98 99 69 62 86 80 82 99 86 82 99 99 96 100 99 97 98 94 99 98 97 99 94 97 95 90 87
26 24 23 23 25 18 16 15 16 28 59 80 70 85 78 90 90 90 98 100 96 100 100 97 98 98 99 95 93 99 99 98 97 98 96 90 87 78
32 28 26 24 25 21 17 14 15 25 60 77 75 98 86 99 94 92 89 100 96 99 100 94 91 99 94 94 98 100 97 97 96 96 95 85 77 47
43 35 31 26 28 24 20 17 15 37 76 83 98 95 84 99 96 96 99 100 96 98 98 95 96 98 100 98 91 96 97 96 97 94 81 71 26 8
41 37 33 31 27 22 21 19 16 50 86 95 100 100 99 96 98 90 99 100 91 96 95 98 90 88 95 91 96 97 96 93 83 76 54 15 6 10
32 29 27 26 24 23 24 23 22 59 69 78 87 100 96 99 98 94 95 97 97 97 98 94 98 97 96 97 96 96 90 80 66 26 8 8 17 24
52 50 68 59 44 37 34 35 54 62 54 68 81 99 97 97 100 96 96 95 98 90 97 97 96 97 96 96 97 86 77 41 11 7 15 24 31 33
84 84 87 80 72 62 63 62 63 80 86 69 78 93 100 99 97 100 98 97 97 97 97 96 97 97 98 93 82 61 22 7 10 22 32 35 34 18
95 97 96 96 96 94 88 89 94 99 100 100 97 98 98 100 98 97 97 98 97 96 96 96 93 91 83 72 35 11 8 20 32 36 38 29 6 5
96 96 96 96 97 97 97 97 97 97 95 97 97 97 97 97 97 97 97 97 96 93 88 86 81 75 45 16 8 15 31 38 40 38 12 4 5 6
96 96 96 96 96 97 97 97 97 97 97 97 97 96 97 98 97 97 96 96 90 86 81 74 43 17 9 12 27 38 42 42 31 4 5 6 7 8
96 96 96 96 96 97 97 97 97 96 97 97 98 97 97 97 96 94 92 90 84 74 44 20 10 11 26 39 45 46 43 17 4 6 7 7 9 10
96 97 96 96 97 97 97 97 97 97 96 97 98 97 97 96 94 95 90 81 51 25 13 12 25 39 47 48 46 39 8 5 7 8 9 10 12 12
96 96 93 92 96 97 97 97 97 97 97 97 97 97 96 96 95 88 60 28 16 13 23 39 48 50 50 48 30 5 5 7 8 9 9 10 10 10
97 97 96 94 94 97 97 97 97 96 97 96 96 96 96 96 77 40 18 15 22 39 49 53 54 52 48 20 5 6 8 8 8 9 9 9 9 9
Wind_Speed
35 35 36 34 35 36 41 35 29 30 32 27 27 28 34 36 35 36 33 41 31 36 36 30 34 47 50 35 29 30 34 31 31 29 26 27 25 26
34 35 36 36 34 37 38 43 36 29 33 34 29 28 26 25 25 28 30 32 28 27 28 29 28 44 35 39 41 34 37 34 26 26 27 22 24 26
34 35 36 37 37 35 38 39 41 41 35 27 29 24 28 28 25 24 26 26 25 24 25 24 36 37 29 45 44 39 37 31 31 26 24 24 25 29
32 34 35 35 38 37 35 38 40 41 42 32 30 28 24 28 27 25 23 21 22 23 20 27 22 33 39 47 44 49 36 35 35 25 25 26 29 32
30 33 34 35 36 38 37 36 38 38 40 42 34 31 28 25 29 29 28 26 25 26 25 21 24 22 27 31 34 43 32 33 37 34 31 27 29 32
29 31 32 35 35 35 37 37 35 36 37 39 44 38 32 29 29 29 25 24 22 21 22 22 23 22 31 27 37 31 33 39 41 30 28 28 32 32
29 30 30 32 34 35 36 38 35 35 34 38 41 38 35 31 26 27 26 26 25 19 17 24 22 26 27 28 30 34 41 38 33 30 28 30 32 31
31 30 30 31 32 33 35 36 36 36 37 33 38 35 33 28 24 25 26 27 25 22 27 26 23 22 26 27 23 27 30 30 26 28 31 32 31 31
33 31 30 30 31 32 33 34 36 37 36 35 34 33 32 31 27 29 28 29 27 22 22 25 29 26 22 26 25 26 26 27 27 31 29 30 32 30
33 32 31 30 31 32 31 34 37 37 35 38 37 31 31 33 28 28 35 29 34 27 28 26 29 23 24 28 29 30 30 29 28 28 29 30 29 28
31 31 31 31 29 32 33 33 37 37 35 36 36 31 33 26 31 28 38 36 30 32 29 23 25 28 26 27 25 29 27 28 27 27 28 27 26 25
27 28 29 30 29 30 33 32 36 35 34 34 35 30 29 31 31 33 33 35 35 38 31 33 28 26 27 26 24 24 24 23 24 24 25 24 23 23
23 24 26 27 28 31 33 34 35 35 33 36 34 35 32 34 30 25 29 31 37 33 28 30 26 27 27 23 22 21 21 21 22 23 23 22 21 22
21 21 22 26 29 31 33 33 34 33 37 36 37 36 34 32 30 30 26 31 31 22 23 26 26 26 23 22 21 20 19 20 20 21 20 19 20 22
23 21 22 25 27 30 32 32 35 34 36 37 38 36 37 36 30 26 29 25 25 26 28 28 22 21 19 17 18 18 18 18 18 18 17 17 20 22
23 22 22 24 26 28 31 34 34 33 32 32 33 33 30 31 31 31 30 27 25 26 23 20 19 21 19 18 17 17 16 16 15 15 17 19 20 22
19 19 20 22 25 27 30 29 31 31 32 31 31 31 31 33 31 30 26 23 23 20 19 20 19 18 18 17 16 15 13 12 13 16 18 19 19 17
14 15 16 19 22 23 30 32 28 32 28 28 24 22 27 27 24 25 27 24 21 19 18 18 18 17 17 16 14 12 11 12 13 15 17 15 14 16
12 12 11 16 17 22 28 30 29 27 28 27 23 24 24 26 27 26 23 21 19 19 18 18 17 15 14 13 11 10 11 12 13 13 10 10 12 15
14 15 15 17 18 21 23 28 30 31 28 27 25 29 26 24 25 22 21 20 19 18 17 16 15 14 13 11 10 10 10 11 9 7 8 10 12 16
16 18 20 20 21 24 26 29 29 28 32 30 28 27 26 22 21 21 20 19 18 17 16 15 14 12 11 10 10 10 10 7 4 5 7 10 13 15
17 20 19 22 21 23 27 28 26 30 32 28 28 27 24 21 19 18 18 17 16 17 16 14 12 10 10 9 9 8 6 4 4 6 8 9 11 13
18 19 19 23 24 23 27 26 23 27 28 26 23 21 20 19 20 19 17 17 17 15 13 11 10 9 9 9 8 7 6 4 5 8 11 13 17 20
Wind_Direction
252 246 244 243 239 238 231 232 241 246 241 244 237 240 245 246 253 254 256 256 257 258 256 261 249 230 244 249 252 231 230 238 248 244 262 261 264 273
252 247 242 241 241 237 236 234 232 238 245 244 243 249 246 248 251 254 252 246 251 252 251 243 251 251 257 262 240 249 229 240 243 256 252 259 263 268
249 247 244 240 239 239 237 237 234 234 241 245 243 245 240 244 250 252 247 251 254 254 246 241 228 244 241 236 231 245 237 239 250 256 256 264 269 281
250 247 244 241 238 236 237 236 236 234 237 239 254 243 241 237 240 242 246 237 238 245 249 241 241 227 229 232 247 235 238 257 255 251 256 270 279 283
252 248 245 242 240 237 236 236 235 233 234 236 236 247 237 242 240 241 243 247 246 253 257 250 241 243 247 244 227 239 252 253 258 259 270 272 278 284
255 251 246 243 240 238 236 236 235 233 232 234 236 240 242 245 242 237 245 245 254 250 252 258 250 241 235 240 231 252 261 254 254 266 268 276 282 287
255 253 250 245 242 238 237 235 234 235 230 235 239 239 243 246 247 246 244 242 255 257 255 235 233 230 233 247 248 242 238 244 262 264 268 275 284 284
255 251 247 245 242 238 237 235 233 232 232 232 242 239 244 243 244 231 246 247 250 240 233 248 259 249 239 246 245 245 253 257 257 263 270 279 282 286
257 254 248 244 240 237 235 234 231 231 232 225 231 241 239 243 248 232 239 244 248 246 245 233 231 231 239 241 252 250 259 265 262 269 271 276 284 286
256 254 250 242 238 236 235 233 230 227 229 228 231 233 236 239 243 242 230 245 233 238 244 243 240 233 231 240 248 249 252 260 263 261 271 279 281 286
254 251 249 244 236 230 233 233 229 226 226 223 227 236 228 241 244 243 227 236 239 236 243 252 244 242 246 247 247 252 251 253 257 268 274 278 283 286
252 248 245 243 237 230 233 234 228 223 226 219 225 235 231 233 240 240 238 241 243 231 231 233 233 230 238 252 247 244 255 257 265 271 278 281 284 285
253 244 240 237 232 229 234 234 226 220 223 218 224 229 234 232 235 237 221 240 236 235 240 226 237 241 243 242 245 253 259 263 268 271 273 278 279 282
256 245 241 238 236 234 230 228 220 220 217 221 226 225 225 229 232 225 243 227 227 225 220 236 231 230 238 237 240 250 257 261 262 266 270 275 283 290
259 250 243 235 232 224 221 215 218 223 218 219 222 227 237 228 222 224 218 219 213 219 229 218 225 222 232 240 245 251 250 254 260 263 272 284 293 302
256 252 241 231 225 219 214 217 218 218 218 218 217 218 223 224 227 223 223 209 215 208 217 218 216 227 238 241 241 241 247 251 258 274 285 294 302 304
251 244 238 233 226 218 213 208 199 196 203 207 214 217 220 218 218 210 204 207 211 210 209 213 221 226 230 230 232 237 238 251 269 283 293 300 302 310
242 229 217 204 195 194 193 188 196 198 209 201 192 197 193 187 190 193 191 194 197 201 208 213 217 217 218 223 223 229 247 266 278 289 295 302 318 329
214 182 171 180 185 178 187 192 200 193 180 174 173 175 178 180 181 188 194 193 198 201 204 204 204 211 212 212 224 241 257 272 284 288 299 321 330 330
184 154 140 155 156 161 168 174 172 165 168 168 167 164 166 174 178 177 183 191 193 193 194 199 200 197 203 217 235 252 266 278 279 296 319 331 333 331
165 145 134 134 142 146 150 153 157 160 156 159 164 168 171 177 180 184 185 184 184 188 191 188 189 199 214 231 246 260 264 254 271 305 322 327 327 330
164 155 149 146 145 149 155 154 155 157 160 165 169 174 181 184 181 181 179 182 185 182 182 185 196 213 229 244 257 253 239 243 278 303 310 314 320 322
172 169 164 159 155 159 162 163 164 165 168 168 173 179 179 180 178 177 180 179 175 179 183 195 212 226 239 246 231 220 223 255 291 302 315 329 336 337